Location: Cisewo
(53.3833°N, 14.9000°E)
Time: 11:02:11
(UTC+00:00)

BEESAT 3 - Pass Details

Date: 28 September 2021
Orbit: 481 x 510 km, 64.9° (Epoch: 22 October)

Event Time Altitude Azimuth Distance (km) Brightness Sun altitude
Rises 18:12:21 0° 308° (NW) 2,608 ? -13.9°
Reaches altitude 10° 18:15:10 10° 330° (NNW) 1,728 ? -14.3°
Maximum altitude 18:17:41 16° 10° (N) 1,378 ? -14.6°
Enters shadow 18:20:00 11° 49° (NE) 1,687 ? -15.0°
